カタログに戻る

FENGYUN 1C DEB

運用中PO
NORAD 33678·DEBRIS·🇨🇳 China

打ち上げ May 10, 1999 から Taiyuan Satellite Launch Center

Loading…

次のパス (今後24時間)

TLE

最新Source: Space-Track

元期: Sep 12, 2026, 16:48 UTC

1 33678U 99025DFP 26255.70025524  .00001213  00000-0  26200-3 0  9997
2 33678  99.0222 344.9240 0203441 137.9347 223.7667 14.48330390990609

AllMySatでFENGYUN 1C DEBをリアルタイム追跡

Download on the App Store